Torna al catalogo

COSMOS 1922

AttivoMilitareHEO
NORAD 18881·PAYLOAD·🇷🇺 Russia

Lanciato Feb 26, 1988 da Plesetsk Cosmodrome

Loading…

Prossimi Passaggi (prossime 24 ore)

TLE

AggiornatoSource: Space-Track

Epoca: Sep 13, 2026, 12:49 UTC

1 18881U 88013A   26256.53437150  .00000433  00000-0  00000-0 0  9995
2 18881  68.7817  67.1226 5926780  41.8484 350.7823  2.00834716282309

Traccia COSMOS 1922 in tempo reale con AllMySat

Download on the App Store